Theta_e
346 345 346 346 347 347 347 348 348 348 343 342 343 343 344 344 346 346 347 350 350 350 351 352 354 347 348 347 347 346 343 340 337
346 346 345 346 347 347 348 348 349 346 342 342 343 345 344 345 345 346 351 350 352 350 352 353 349 347 346 347 347 346 345 342 335
346 346 346 346 346 347 348 348 349 350 350 347 344 348 347 346 343 344 344 344 343 347 349 348 350 350 348 348 349 345 345 348 341
345 344 346 346 347 347 349 349 349 350 352 349 345 343 342 343 344 343 343 343 343 343 343 344 346 349 350 348 348 349 345 346 346
349 349 346 345 347 347 348 350 350 352 351 342 343 343 338 338 336 341 343 345 346 344 344 344 344 345 348 349 347 349 349 347 350
353 350 348 344 347 347 348 349 351 349 342 342 343 339 337 335 336 340 343 345 346 347 347 347 347 346 345 347 348 347 348 349 347
353 351 348 348 348 350 350 349 344 343 343 343 343 342 335 335 336 336 340 346 346 345 346 347 347 348 348 347 347 348 349 349 350
353 351 350 350 350 354 354 346 346 345 345 345 344 343 340 339 340 344 346 346 345 345 347 348 348 348 349 350 350 353 351 351 350
354 353 353 353 354 354 354 352 349 349 350 349 348 347 344 344 350 345 348 350 351 351 351 349 350 351 351 350 353 356 351 352 351
355 357 357 357 356 356 355 349 336 333 332 333 338 346 352 354 355 357 358 357 358 358 357 357 358 359 355 354 354 353 352 351 351
355 357 358 354 350 349 348 345 342 329 329 332 337 342 342 338 339 342 340 338 343 349 353 357 360 360 357 356 356 355 353 351 348
355 355 354 351 349 344 345 348 334 332 332 333 347 351 352 353 354 354 354 354 355 355 355 351 348 351 355 360 360 358 353 352 350
355 353 350 350 344 342 345 348 340 337 337 336 336 333 330 328 326 324 326 328 335 341 350 353 351 352 352 351 353 355 355 354 353
355 352 351 349 342 342 347 349 348 349 348 348 343 336 334 330 329 328 327 327 326 325 330 330 337 352 347 337 342 347 348 354 352
355 354 351 350 348 344 347 351 352 350 352 351 348 338 333 332 331 331 331 330 330 329 331 340 350 351 350 346 340 335 343 348 352
352 352 351 352 353 351 351 354 355 351 355 360 352 337 334 333 333 333 334 334 336 346 343 344 344 345 345 344 345 340 334 342 348
350 348 349 350 354 355 357 358 348 353 352 349 346 336 335 336 336 339 337 344 342 341 339 339 340 342 343 344 345 348 345 336 343
350 350 352 352 355 355 354 349 345 345 348 344 340 342 345 345 343 343 343 342 342 341 339 341 342 343 343 343 343 345 348 348 343
349 347 348 350 352 352 349 344 345 343 339 338 339 344 343 343 342 341 341 341 341 341 343 343 342 342 342 342 342 341 341 340 339
343 347 347 346 346 345 346 348 348 341 339 338 336 337 343 342 340 341 341 340 340 340 340 342 343 343 342 340 338 339 341 340 339
Wind_Speed
25 27 26 26 27 26 24 21 21 20 19 19 19 20 19 18 18 17 15 13 11 11 9 8 10 8 8 8 8 7 6 6 5
21 24 26 27 26 26 24 22 21 21 21 20 18 18 20 20 20 19 15 16 14 13 13 10 12 9 9 9 8 8 7 6 7
15 19 21 21 21 23 23 22 21 18 19 17 18 13 14 17 18 20 20 20 19 16 15 14 14 12 11 11 9 9 9 8 7
7 11 16 20 20 19 18 20 21 18 16 19 19 8 18 19 17 18 19 20 20 21 19 18 18 16 15 13 12 11 11 10 11
4 5 9 16 18 17 17 18 19 20 21 20 19 18 16 30 21 18 22 18 17 20 21 21 20 20 19 18 16 15 14 13 11
6 7 10 16 18 17 17 18 20 20 20 18 16 10 16 28 23 20 22 22 18 18 21 21 22 22 23 22 21 19 17 15 15
10 13 14 18 19 18 17 17 17 17 18 19 18 20 19 20 23 25 22 21 20 20 21 23 24 25 25 27 26 25 23 20 19
13 18 19 20 21 19 18 18 16 14 13 13 17 25 23 22 19 17 18 20 20 20 22 22 23 25 27 27 28 26 26 25 24
15 19 18 19 19 19 19 19 19 16 11 8 9 15 23 26 22 24 22 19 19 22 24 25 26 26 27 28 27 26 29 27 26
18 20 22 22 22 21 21 22 23 21 16 11 7 4 1 2 3 5 6 7 9 13 17 18 21 23 24 26 27 29 30 29 29
20 22 24 23 24 23 21 22 22 20 16 15 14 12 9 7 5 4 5 6 6 7 10 12 15 18 21 24 26 27 26 25 23
22 21 21 22 22 21 22 22 25 22 20 18 14 11 7 4 2 1 3 5 7 8 10 11 12 13 16 20 22 26 26 29 28
21 21 21 21 20 21 20 20 22 19 17 14 12 11 8 7 6 6 6 6 8 10 10 12 13 13 13 15 16 18 19 20 20
21 22 22 21 20 18 17 16 15 15 14 12 11 7 4 3 3 5 7 9 11 13 14 15 16 15 15 16 17 18 17 16 16
19 21 22 21 20 17 13 12 11 11 12 11 12 10 7 3 3 5 8 11 13 16 17 15 14 15 15 15 20 20 19 17 16
17 18 20 20 19 17 15 13 11 11 11 11 10 9 6 5 5 8 11 14 17 15 16 18 17 16 16 15 16 19 19 19 16
14 15 16 18 18 16 13 12 11 11 14 12 11 9 8 10 12 13 16 14 15 18 21 21 19 18 17 16 15 16 17 19 19
12 12 12 14 14 12 9 9 10 10 10 9 7 6 7 9 12 13 16 17 18 20 19 17 18 18 17 18 18 16 18 18 18
10 9 8 8 7 7 5 5 6 6 7 7 7 6 9 12 15 17 18 19 20 19 20 20 17 19 21 22 23 23 21 22 20
12 10 8 8 8 7 8 8 6 3 4 6 10 13 13 14 17 18 19 20 19 19 18 19 21 20 21 20 20 20 23 21 18
Wind_Direction
189 195 198 201 205 205 203 203 204 205 209 210 215 220 224 231 233 237 242 247 233 236 237 253 249 256 247 259 261 261 261 246 245
184 194 196 196 199 202 201 202 203 205 203 206 209 219 226 230 235 232 229 230 241 243 243 246 258 259 255 265 266 259 257 240 251
173 192 197 198 198 199 197 200 199 197 200 200 205 209 230 230 235 240 238 243 246 240 241 251 250 260 261 262 269 260 255 242 248
184 196 194 197 195 195 190 188 188 187 174 188 193 186 276 236 228 245 246 245 247 249 249 252 255 260 261 262 261 264 254 241 241
140 172 184 187 179 172 178 177 176 174 179 202 213 243 269 236 239 242 247 246 253 254 252 253 254 256 256 257 258 257 261 255 239
137 132 140 160 155 157 163 169 172 182 196 207 212 218 214 200 216 230 239 237 241 250 255 255 256 254 255 255 256 256 256 254 250
123 122 132 140 148 146 157 166 173 183 192 202 209 209 215 212 220 241 245 233 240 252 259 256 257 258 257 256 253 253 250 249 246
129 131 131 137 143 146 150 153 161 171 183 195 204 211 228 233 238 240 253 256 266 262 260 256 257 261 260 257 254 246 244 239 243
140 133 135 134 141 145 147 145 139 138 144 159 190 213 228 242 253 269 272 276 273 267 263 255 259 258 256 254 251 246 249 239 235
138 130 127 126 130 132 133 130 124 118 116 114 118 125 150 237 277 298 305 302 290 280 275 266 260 258 255 253 253 253 254 247 240
140 135 129 129 129 131 131 132 119 103 101 102 103 103 98 84 65 37 8 352 335 313 291 285 275 266 263 261 258 259 260 251 239
145 142 138 137 135 141 142 133 113 105 103 104 111 109 108 99 75 13 330 322 310 302 297 293 293 288 276 266 267 266 264 266 260
147 146 147 144 148 148 143 134 124 121 123 118 109 106 99 80 58 38 17 343 321 306 298 298 291 282 285 287 283 280 280 278 269
154 154 153 153 157 161 160 149 142 150 156 160 143 137 130 91 52 28 14 5 356 342 321 297 290 290 292 288 283 283 284 283 276
159 161 162 166 170 178 180 175 175 178 181 180 176 179 184 204 287 321 327 333 332 329 325 312 296 292 288 282 280 278 274 275 271
168 173 176 178 179 184 193 200 199 205 210 201 195 209 235 272 291 305 311 313 317 316 312 305 298 291 290 288 284 277 275 270 261
175 180 187 192 189 193 200 201 212 209 231 220 223 229 261 291 305 306 313 306 304 303 305 300 291 287 287 287 284 280 278 268 265
173 170 173 183 188 191 196 209 224 230 232 227 234 255 276 290 297 299 306 308 300 301 300 289 280 279 282 283 281 280 267 273 267
149 157 153 157 165 171 181 203 200 206 216 230 256 288 293 293 302 305 304 304 306 305 306 308 300 282 282 283 281 279 273 273 269
112 112 122 122 128 129 129 123 126 185 251 282 295 304 308 300 305 304 306 308 307 307 306 306 308 307 299 293 292 283 274 273 270